Location: ????
(33.1659°N, 35.6604°E)
Time: 15:39:43
(UTC+00:00)

Meteor 1-15 Rocket - Pass Details

Date: 20 September 2019
Orbit: 840 x 907 km, 81.2° (Epoch: 16 October)

Event Time Altitude Azimuth Distance (km) Brightness Sun altitude
Rises 17:05:35 0° 189° (S) 3,431 7.3 -19.1°
Reaches altitude 10° 17:07:59 10° 190° (S) 2,507 6.6 -19.6°
Maximum altitude 17:13:42 82° 277° (W) 895 4.3 -20.7°
Drops below altitude 10° 17:19:33 10° 6° (N) 2,566 6.8 -21.9°
Sets 17:22:02 0° 7° (N) 3,518 7.5 -22.4°
